Погода в Паликире

Федеративные Штаты Микронезии     6°55′09″N   158°09′20″E
темп.,
°C
ветер,
м/с
пор.,
м/с
влажн.,
%
обл.,
%
осадки,
мм/ч
давл.,
гПа
погр.,
м
1 марта, пн
пн101:00+28всв8107396 0.1 10091280
04:00+28в797398 0.3 10071149
07:00+28всв787871 0.5 1010903
10:00+28всв9107885 0.6 10091014
13:00+28всв9117872 0.6 10071039
16:00+28всв9107786 0.9 10071044
19:00+28всв81078100 0.5 1009980
22:00+28всв101179100 2.7 1009963
2 марта, вт
вт201:00+28всв91078100 1.2 10081001
04:00+28всв91076100 5.8 1007939
07:00+28в897462 1.8 1009897
10:00+28в8107771 2.9 10101028
13:00+28в897695 0.0 10071042
16:00+28всв787667 0.0 10071081
19:00+28всв897670 0.3 1008993
22:00+28в8107637 0.6 1009939
3 марта, ср
ср301:00+28в810782 0.5 10081006
04:00+28всв89781 0.7 1008994
07:00+28всв910795 0.1 10101008
10:00+28всв910798 0.1 10101023
13:00+28св9107921 0.2 1007974
16:00+28св9107959 0.3 10071013
19:00+28св10118190 0.4 1008977
22:00+28всв8108195 1.4 1009933
4 марта, чт
чт401:00+28всв898289 1.6 1008830
04:00+28всв788272 1.9 1007819
07:00+28в6681100 1.6 1009739
10:00+28в5679100 4.9 1009509
13:00+28в567774 4.8 1007606
16:00+28в667984 7.1 1007756
19:00+28всв567797 0.8 1008693
22:00+28в787884 1.7 1009886
5 марта, пт
пт501:00+28в678155 0.1 1007809
04:00+28в788267 0.6 1007779
07:00+28в6782100 0.1 1009747
10:00+28в6782100 0.2 1009768
13:00+28в668075 0.3 1007774
16:00+28в678063 1.5 1007764
19:00+28всв678176 1.8 1009738
22:00+28всв677688 3.5 1009767